Wind_Speed
16 16 15 15 14 13 13 13 13 13 13 13 13 13 13 13 13 13 13 12 11 11 10 10 10 9 9 9 9 9 9 8 7 6 6 6 6 5 5 5 5 6 7 7 7 7 7 7 7 8 8 8 8 8 8 8 8 8 8 6 5 7 9 9 9 9 9 10 11 11 9 9 8 8 9 9 10 11 12 12 13 13 13 12 11
15 16 16 15 15 15 15 15 14 14 15 14 14 14 14 14 14 15 15 14 13 12 12 11 11 11 11 11 11 10 10 9 8 7 7 7 7 7 6 6 6 7 7 8 8 8 8 8 8 8 9 9 9 9 9 9 9 9 9 9 7 8 9 9 10 10 10 10 11 12 11 10 8 7 7 8 9 10 10 11 11 12 11 10 9
13 14 15 15 16 16 16 16 16 16 16 16 16 16 16 16 16 16 16 15 14 14 13 13 13 13 13 13 12 12 12 11 9 9 9 8 8 7 7 7 7 7 7 8 8 9 9 9 9 9 9 9 9 10 10 10 10 10 10 10 10 10 10 9 10 10 11 11 11 11 12 11 9 7 6 7 8 9 9 9 9 10 9 9 9
11 11 13 14 15 15 16 16 17 18 18 18 18 18 17 17 17 17 17 17 16 15 15 15 15 15 14 14 14 13 13 12 11 11 11 10 10 9 8 8 8 7 8 8 8 9 10 10 10 10 10 10 10 10 10 10 10 10 10 10 11 11 10 10 10 11 11 11 11 11 12 12 10 9 8 8 9 9 9 9 10 10 10 11 11
12 12 12 12 13 14 14 15 17 18 19 19 19 19 19 19 18 18 18 18 17 17 17 17 17 16 16 16 15 15 15 14 13 13 13 12 11 11 10 9 9 8 8 9 9 10 10 11 11 10 10 11 10 10 10 10 10 10 10 10 10 11 11 11 11 11 12 12 12 12 12 13 12 12 11 10 11 11 10 11 11 11 12 13 14
14 13 12 13 13 13 13 14 15 17 19 20 21 21 20 20 20 19 19 19 19 18 18 18 17 17 18 18 17 17 17 16 16 16 15 14 13 13 12 10 10 9 9 9 10 10 11 11 12 11 11 11 11 11 10 10 10 10 10 10 10 11 10 10 11 11 12 12 13 13 13 14 14 14 13 13 13 14 14 14 14 14 15 16 17
16 15 14 14 14 14 14 15 15 16 17 18 20 21 22 22 21 20 20 20 20 19 18 18 18 18 19 19 19 19 19 19 18 18 17 16 15 15 14 12 11 11 11 11 11 11 11 12 12 13 13 13 13 13 12 11 12 12 12 11 12 12 11 11 11 11 12 13 14 14 15 15 15 15 15 15 15 16 16 17 18 18 18 19 21
18 17 16 16 16 16 16 17 17 18 17 17 18 20 22 23 23 22 21 21 21 21 20 19 20 20 20 20 20 21 21 21 21 20 20 19 18 17 16 15 14 14 13 13 13 13 13 13 13 14 14 15 15 15 14 14 14 15 15 15 15 15 14 14 14 14 14 15 16 16 17 18 17 17 17 17 17 18 18 18 19 20 20 22 24
20 20 19 19 19 19 19 19 19 19 18 18 18 19 20 22 23 23 23 23 23 23 22 22 22 23 22 21 22 22 22 22 22 22 22 22 21 20 19 18 18 17 16 16 16 16 15 15 15 15 15 15 15 16 15 16 17 18 18 18 18 18 18 17 17 17 17 18 18 18 19 19 19 19 20 19 19 19 19 19 19 20 21 22 25
19 20 21 21 22 22 23 22 20 20 20 20 20 21 21 22 22 22 23 24 24 24 25 25 26 25 24 24 24 23 23 23 23 23 24 24 23 23 22 21 21 21 20 19 18 18 18 18 17 17 16 16 15 16 16 16 17 18 19 19 19 19 19 19 19 19 19 19 19 19 20 20 20 20 21 21 20 19 19 19 18 19 20 20 22
18 18 20 21 22 23 24 23 21 21 23 24 23 23 23 23 23 22 22 22 23 24 26 28 28 27 27 27 27 25 23 23 24 24 24 25 25 25 24 24 24 24 23 22 21 21 21 20 19 19 19 18 16 16 17 16 17 18 19 19 19 19 19 19 20 20 20 20 20 20 20 20 21 21 21 21 21 21 20 19 19 18 19 18 18
19 18 18 19 19 21 23 22 20 21 25 26 26 27 27 27 27 26 24 22 22 23 25 27 30 31 30 30 29 27 25 25 25 24 24 26 26 26 26 26 27 27 26 26 25 25 24 23 21 22 22 20 18 17 18 18 17 18 19 19 19 18 18 19 20 20 20 20 21 21 20 20 21 22 21 21 21 21 21 21 21 20 19 19 18
20 19 19 19 19 20 22 22 20 21 24 26 26 27 28 28 28 28 28 26 24 24 25 25 27 30 32 33 32 30 29 28 26 25 27 28 28 28 27 27 28 28 28 28 28 28 27 25 24 24 24 22 21 20 20 20 19 19 19 19 18 18 18 19 19 20 20 20 21 22 21 20 21 22 22 21 20 21 21 22 23 22 22 21 21
22 21 21 21 21 22 23 24 23 22 24 26 25 26 27 26 26 27 29 29 28 27 27 26 26 28 31 33 33 32 31 30 29 29 31 31 31 31 29 28 28 29 30 31 31 30 28 27 26 25 25 25 24 24 23 21 20 20 20 19 18 19 19 19 19 20 20 21 21 22 22 21 21 22 22 21 20 20 21 23 24 24 23 24 24
24 24 24 24 23 24 25 26 26 25 25 25 25 25 25 25 25 26 27 28 28 28 28 28 29 31 32 32 32 32 32 34 34 34 34 35 36 36 35 32 30 30 31 31 31 30 28 27 27 26 25 26 27 27 26 24 22 21 21 20 20 20 20 21 21 21 22 22 22 22 22 22 22 23 23 23 22 21 22 24 25 25 24 25 27
26 26 26 26 25 26 26 27 28 28 27 26 24 23 23 25 26 26 26 28 28 26 27 30 33 35 36 35 34 33 33 35 36 36 36 38 40 41 41 37 33 32 32 31 31 31 30 29 28 27 27 27 28 29 28 27 25 23 22 21 21 22 22 22 22 23 23 23 23 23 23 23 24 24 24 24 24 23 23 24 26 26 25 25 26
28 29 29 29 28 29 28 28 29 30 29 28 26 24 23 23 25 26 27 28 27 25 26 29 32 34 35 36 35 34 34 35 37 37 37 38 39 41 43 42 39 36 35 35 34 33 31 31 30 28 28 29 28 28 29 28 27 26 25 23 23 23 23 23 22 23 24 24 24 24 24 24 25 25 26 26 25 23 23 24 26 27 26 25 24
32 32 32 32 33 33 32 31 30 31 31 30 30 28 26 25 25 26 27 28 27 27 27 29 30 32 32 33 33 32 33 35 37 37 37 38 40 40 42 43 42 40 39 39 37 35 33 32 31 29 29 30 28 28 29 29 29 28 27 26 25 25 24 24 24 24 24 24 25 25 25 26 26 27 27 28 27 25 23 23 25 25 25 25 24
36 36 36 36 36 36 36 35 33 32 32 32 31 30 29 29 29 29 29 29 28 27 27 28 30 31 31 32 33 33 33 34 35 36 37 38 40 40 40 42 43 43 42 41 40 39 36 34 32 30 29 30 29 28 29 29 29 29 29 28 27 26 25 25 26 26 25 25 26 26 27 27 28 28 28 28 29 28 26 25 25 25 24 25 24
39 39 39 38 38 38 39 38 36 34 33 33 33 32 31 31 31 30 30 29 28 27 27 27 28 29 30 32 34 35 35 35 37 37 37 38 39 39 40 40 42 44 44 43 43 43 40 36 33 31 30 30 30 30 30 31 31 31 31 30 30 28 27 27 27 27 26 26 27 28 28 28 29 29 29 29 30 29 29 28 28 27 27 26 26
40 40 40 39 39 39 39 39 38 36 34 33 33 33 33 33 33 32 31 30 30 29 28 28 27 27 28 30 31 32 33 34 34 33 32 31 32 33 36 38 40 42 44 44 44 44 42 38 35 34 33 34 34 33 33 33 34 34 33 32 31 30 30 30 29 29 28 28 29 29 29 29 30 30 30 31 31 31 31 31 30 30 29 29 28
40 40 39 39 39 39 39 39 39 38 35 33 33 33 34 34 34 34 33 32 32 32 31 30 28 27 27 28 28 27 27 28 27 25 24 24 24 24 27 30 34 38 42 45 45 44 43 41 39 37 37 37 37 36 35 36 36 36 35 35 33 32 32 33 32 32 31 32 32 32 31 31 32 32 32 32 32 32 33 32 32 31 31 30 29
41 40 39 39 38 38 38 39 39 38 36 34 34 33 33 33 34 35 35 34 33 33 33 32 30 29 29 28 27 26 25 26 26 22 20 23 25 24 23 24 26 30 35 40 42 43 43 42 41 41 40 40 40 39 37 37 38 37 37 36 36 35 35 35 34 34 34 35 34 34 34 34 34 33 33 33 33 33 33 33 33 32 32 31 31
41 39 39 39 38 38 37 38 38 38 36 35 35 34 33 32 32 33 34 34 34 34 33 33 32 31 30 28 28 28 29 29 29 25 22 23 25 25 25 25 26 28 28 30 33 35 38 39 41 42 42 42 42 42 41 40 40 39 39 38 37 37 37 36 36 36 36 35 35 35 36 36 36 35 34 33 34 34 34 33 33 33 32 32 32
42 39 37 37 37 37 37 37 38 37 36 36 35 34 33 33 32 32 32 33 33 33 33 33 33 32 33 32 33 34 33 32 32 30 27 26 25 25 26 26 26 26 23 23 24 26 30 34 37 39 41 41 41 41 41 41 40 40 40 39 38 38 37 37 36 36 35 34 35 36 37 37 36 36 35 34 34 33 33 33 33 33 34 34 34
43 41 38 37 37 38 38 38 38 38 37 36 35 35 35 34 32 31 31 31 32 32 32 32 32 32 33 33 34 35 36 35 35 34 32 30 28 27 26 25 24 22 19 17 17 17 19 23 25 28 31 33 32 31 33 35 36 37 37 38 38 38 37 37 36 36 35 35 36 37 38 38 37 37 37 36 36 36 36 36 36 36 36 36 35
44 43 41 39 38 40 41 40 39 38 38 36 34 34 34 33 32 31 30 30 31 32 32 32 32 32 32 32 31 31 32 35 36 35 33 32 31 30 28 25 23 21 17 15 15 14 15 18 18 18 19 22 23 24 26 28 30 31 32 35 36 38 37 36 35 35 35 35 36 38 39 39 39 39 39 38 38 38 38 39 38 38 38 38 37
46 45 43 42 41 42 43 43 41 40 38 37 36 36 36 35 34 34 33 33 33 33 33 33 33 33 33 32 30 29 29 32 33 32 32 32 32 32 31 28 26 24 20 19 20 20 20 20 20 19 20 22 24 26 28 28 28 29 30 31 32 34 35 33 32 32 32 34 36 39 40 39 39 40 40 39 39 40 40 41 41 40 40 40 39
48 47 46 44 44 44 46 46 45 44 42 42 41 40 40 40 39 38 38 38 36 35 35 35 35 34 34 34 32 30 30 30 31 30 30 31 31 31 32 31 30 29 27 26 26 26 25 25 25 25 26 27 28 29 30 30 29 29 29 29 30 31 30 29 29 30 32 34 37 39 39 39 39 40 40 40 41 42 43 43 43 43 43 43 42
49 49 48 47 48 49 50 50 47 45 44 44 43 43 43 43 42 41 40 40 39 37 37 37 36 35 35 36 35 33 31 31 31 31 31 31 31 31 32 32 32 32 32 32 32 32 32 32 31 31 30 30 31 32 32 32 31 31 30 30 31 31 31 30 30 31 33 36 38 39 39 40 41 41 41 41 42 44 45 45 45 45 45 45 45
43 45 47 50 52 52 50 47 46 44 44 44 44 44 44 45 45 44 42 41 41 40 39 38 38 37 36 37 37 35 33 33 33 33 33 32 32 32 33 33 33 33 34 35 36 37 37 37 36 35 35 34 34 34 35 35 34 34 34 33 33 34 34 33 33 34 35 37 39 40 41 42 42 42 43 43 44 45 46 47 47 48 48 48 48
44 43 43 47 51 52 49 46 45 46 47 47 47 47 46 45 45 46 45 44 43 42 41 40 40 39 38 38 38 38 37 35 34 34 34 34 34 34 34 35 35 35 36 37 38 39 40 40 40 40 40 39 38 38 38 37 37 37 37 37 37 38 37 37 37 38 39 39 40 41 42 43 43 43 44 45 46 46 47 48 49 49 50 50 50
50 48 46 45 46 47 48 47 48 49 49 49 49 49 48 47 46 46 46 45 45 44 43 42 42 41 40 39 39 40 40 38 37 36 36 35 35 36 36 36 37 37 37 38 38 39 40 41 42 43 43 42 42 42 41 41 40 40 40 41 41 41 41 41 42 43 43 43 43 44 45 46 46 46 47 47 48 48 49 49 49 50 50 51 51
46 47 48 48 46 45 46 48 49 51 52 52 51 51 50 49 48 47 47 47 46 45 45 44 44 43 43 42 42 41 42 41 41 40 39 38 38 38 38 39 39 39 39 39 40 40 41 42 43 43 43 43 44 44 44 44 44 44 44 45 46 46 46 46 47 47 48 48 48 49 49 50 50 50 50 51 51 51 51 51 52 52 52 52 53
40 41 43 47 48 48 47 48 49 51 53 54 55 54 54 53 51 49 49 49 48 47 46 46 45 45 44 44 44 44 44 44 44 44 43 43 43 42 42 42 42 42 42 42 42 42 42 43 44 44 44 44 44 44 45 45 45 45 46 47 48 49 50 51 51 51 52 52 52 52 53 53 54 54 54 54 55 55 55 55 55 55 55 55 55
40 40 40 42 45 47 48 48 49 50 52 53 53 54 54 54 54 53 51 50 49 49 48 47 47 47 47 46 45 46 48 48 47 47 47 47 47 47 47 47 46 46 46 45 44 44 44 44 44 44 44 44 44 45 45 45 46 46 47 48 48 49 50 51 52 52 53 54 54 54 54 55 55 56 56 56 57 57 58 58 58 58 58 58 59
51 49 47 45 45 46 49 50 50 50 50 51 51 51 51 52 53 53 52 51 50 50 50 50 50 51 51 50 49 51 52 52 51 50 50 50 50 51 51 51 51 50 50 50 49 49 49 48 48 47 46 46 47 47 47 49 50 50 50 50 50 51 52 52 53 53 54 54 55 56 56 56 57 58 58 58 58 59 59 59 59 60 60 61 61
57 57 56 54 51 49 49 49 50 51 51 51 52 52 52 52 52 52 52 51 51 52 53 54 54 54 53 52 52 54 54 54 53 53 53 53 53 52 52 52 52 52 52 53 53 53 53 52 52 52 52 52 51 50 50 51 52 53 53 53 53 54 55 55 56 56 56 56 57 57 58 59 59 60 60 61 61 62 62 62 63 63 64 64 64
55 55 56 58 58 56 53 52 52 52 53 53 54 54 55 54 54 54 54 54 54 54 55 55 55 54 53 53 53 54 54 54 55 55 55 54 54 54 54 54 54 53 54 54 54 54 53 53 54 55 55 54 54 54 54 55 55 55 55 55 55 56 56 57 58 59 59 59 59 60 60 61 62 62 63 63 64 65 65 66 66 67 68 68 68
54 54 54 55 57 58 58 57 55 55 54 54 54 54 54 54 54 55 55 55 56 56 57 58 57 56 56 55 55 55 55 55 56 57 56 56 56 56 56 56 56 57 57 57 56 55 54 53 54 56 56 56 57 57 57 56 57 57 56 56 56 57 58 59 60 60 60 61 62 62 63 64 64 65 65 66 67 67 68 68 69 70 70 71 71
54 55 54 54 54 55 57 58 58 57 56 56 55 54 53 53 52 53 53 53 54 54 55 56 57 57 57 57 57 56 56 56 56 57 57 56 55 55 55 55 55 55 56 55 55 54 53 51 52 54 55 55 56 56 56 56 56 57 57 57 57 57 58 59 60 60 61 62 64 64 65 66 67 68 68 69 70 70 71 72 72 72 73 73 74
55 54 54 53 53 53 54 55 56 56 55 55 55 55 55 54 53 53 53 53 53 53 53 53 53 53 54 54 55 55 55 55 55 55 55 55 54 53 53 54 54 54 53 53 53 53 52 51 52 54 55 55 55 55 55 56 57 58 58 59 59 59 59 59 60 60 61 62 64 65 66 67 68 69 69 70 71 72 73 73 74 74 75 75 76
55 55 54 53 53 53 53 53 54 54 54 53 52 52 53 54 55 55 55 55 55 55 55 55 55 53 53 53 54 55 55 55 55 55 55 55 55 55 55 56 56 55 54 54 54 54 54 54 55 56 56 57 57 57 57 57 58 59 60 61 61 61 61 62 62 62 62 63 64 64 65 66 67 68 69 70 70 71 72 73 73 74 75 76 76
57 57 57 56 55 55 54 54 53 53 52 51 50 50 51 53 54 55 56 56 56 56 57 57 57 56 55 55 55 56 56 56 55 56 56 56 56 56 56 56 56 56 55 55 56 56 55 56 56 56 57 57 58 58 58 58 59 59 60 60 60 60 61 61 62 63 64 65 65 66 66 67 68 68 69 69 70 70 71 72 73 73 74 75 76
54 56 58 59 58 57 56 56 55 54 52 51 51 51 52 53 55 56 56 56 56 56 56 57 57 57 57 57 57 56 56 55 55 56 56 56 56 56 56 56 56 55 55 56 56 56 56 56 56 56 57 57 57 57 58 58 59 59 60 59 60 60 61 61 62 63 64 65 66 67 68 69 69 70 70 70 71 71 71 71 72 73 73 74 75
54 56 57 58 57 57 56 56 55 54 53 53 53 52 52 53 54 55 55 56 56 56 56 57 57 57 57 58 58 57 57 56 56 56 56 56 56 56 56 56 56 56 56 56 56 57 57 57 57 57 57 57 57 58 58 58 59 60 60 59 60 61 61 62 63 64 64 65 66 67 68 68 69 70 70 71 71 72 72 72 73 73 73 74 75
57 59 59 58 57 57 57 57 56 55 55 55 55 55 55 55 55 55 55 55 56 56 57 57 57 58 58 58 58 58 58 58 58 57 57 57 57 57 57 56 56 57 56 56 57 57 58 58 58 58 58 57 58 58 59 59 60 61 61 60 61 62 63 63 64 65 65 66 67 67 67 68 68 68 69 70 71 72 72 72 73 74 75 75 76
57 58 60 60 60 59 59 59 58 58 57 58 58 57 58 59 59 58 57 57 57 57 57 58 58 59 59 59 59 59 59 59 59 59 58 58 58 58 58 58 58 58 58 58 58 59 59 59 59 59 59 59 60 60 61 61 62 63 63 63 63 64 65 65 66 66 66 67 67 67 67 67 67 68 69 69 70 71 72 73 74 74 75 76 77
58 57 58 58 59 59 60 60 60 59 59 59 59 59 59 60 59 59 58 58 58 58 59 59 59 59 59 59 59 59 59 59 59 59 59 59 59 59 59 59 59 60 60 60 60 61 61 61 61 61 61 62 62 63 64 64 65 65 65 64 65 65 65 65 65 66 66 66 66 66 67 67 68 69 69 70 71 71 72 73 73 74 74 75 76
55 56 56 56 56 57 58 59 59 60 60 59 59 60 60 60 59 59 58 58 58 58 59 60 60 60 61 61 61 61 61 61 61 61 61 61 61 61 61 60 60 60 61 61 61 62 62 62 62 63 63 63 64 64 65 65 65 65 64 64 64 64 64 64 65 65 65 66 66 66 67 67 68 69 69 70 70 71 71 72 72 72 72 73 73
52 52 52 53 53 53 54 55 56 58 59 59 59 60 61 60 60 59 59 58 58 58 59 59 59 60 60 61 62 62 62 61 61 62 62 62 62 62 62 61 61 61 61 61 61 61 62 62 62 62 63 63 63 64 64 65 64 64 63 64 64 64 64 64 65 65 65 65 66 66 67 67 67 68 68 69 69 69 69 70 70 70 70 71 71
Wind_Direction
227 230 233 234 232 232 235 240 245 247 248 250 251 249 249 250 252 253 251 249 249 249 250 250 250 250 253 255 258 260 262 261 259 264 271 277 283 293 301 305 306 304 302 302 302 302 303 302 298 293 293 293 293 296 299 303 309 308 305 315 324 312 301 296 296 296 292 292 297 302 305 304 299 293 291 290 289 289 290 292 292 292 292 292 294
225 229 233 236 237 236 238 240 244 248 250 251 252 252 251 250 250 251 252 253 253 253 253 254 256 257 258 258 258 260 261 259 256 257 263 271 280 287 294 299 302 302 302 303 300 296 295 294 292 289 288 288 290 292 294 296 296 296 302 311 311 301 298 301 301 299 296 291 289 291 294 297 297 294 294 297 298 297 297 299 296 292 291 290 290
222 227 233 237 239 239 240 242 243 246 249 250 252 253 252 251 249 249 250 251 253 253 254 256 257 259 260 261 260 262 263 260 259 259 257 257 262 269 278 286 292 295 296 297 296 296 295 293 293 291 289 289 290 290 290 290 291 293 296 298 296 294 294 296 296 295 294 292 288 287 289 292 293 294 296 295 294 298 301 303 300 295 291 288 286
224 224 230 237 241 243 243 244 245 246 248 249 250 252 252 252 252 251 250 250 250 252 255 256 257 258 260 261 262 264 265 263 261 259 255 252 252 254 258 265 270 277 284 288 288 289 290 290 290 290 289 290 290 289 290 290 290 292 292 290 291 292 291 291 291 290 292 293 292 289 290 294 297 299 298 291 289 293 297 297 296 294 291 289 288
231 229 230 234 239 243 246 248 249 250 250 251 251 252 253 253 253 254 254 253 252 253 255 256 257 258 258 260 262 264 265 265 263 260 257 255 253 251 250 253 258 263 270 276 278 279 282 284 285 286 286 288 288 288 287 287 287 285 286 285 286 287 288 288 289 290 292 293 293 291 290 292 294 297 298 296 295 296 295 293 292 291 289 289 289
235 234 233 235 238 241 244 247 249 251 252 253 254 254 254 255 255 255 255 256 256 256 255 255 257 259 258 259 261 262 263 264 264 263 262 261 260 258 255 251 254 258 260 264 267 270 273 276 278 279 279 280 282 283 282 281 280 277 274 275 275 277 282 285 288 291 293 295 295 294 293 291 291 294 297 296 294 293 292 290 289 289 288 287 288
240 238 236 238 240 240 242 244 246 249 251 252 254 255 255 255 255 256 256 256 257 257 255 256 259 259 259 260 261 261 261 261 262 263 264 264 263 263 263 262 260 258 257 258 260 262 264 266 268 271 272 272 272 273 274 274 274 272 269 268 268 271 274 277 281 285 288 290 292 293 294 294 294 295 294 292 290 289 288 288 288 289 289 288 288
244 243 242 243 244 245 245 245 247 249 250 251 253 254 254 254 254 254 254 254 255 255 255 257 259 259 259 260 260 260 259 259 261 262 263 263 263 264 266 267 266 262 259 258 258 258 258 260 261 262 265 267 266 266 267 268 269 270 269 269 270 272 273 275 277 280 283 285 287 290 292 294 295 294 293 291 289 288 286 285 285 287 289 289 288
248 250 250 248 246 246 246 247 249 251 252 254 256 257 256 255 254 252 251 252 254 256 256 256 257 258 258 256 257 259 259 260 261 261 262 263 264 265 265 266 267 267 265 263 262 261 259 259 261 262 262 263 266 266 265 265 266 267 269 271 273 276 279 281 281 282 284 285 287 289 292 294 296 296 295 295 293 291 289 288 287 286 287 288 289
247 251 254 252 248 246 246 246 249 254 256 256 257 260 261 262 261 258 255 254 254 254 256 257 257 256 256 256 258 258 258 260 262 264 265 266 266 266 266 265 266 267 266 266 266 264 262 261 262 264 265 264 265 267 267 266 266 268 269 270 273 276 279 282 283 284 285 286 288 290 292 295 296 296 297 299 298 296 295 295 294 292 291 291 292
243 247 253 257 256 255 255 252 250 255 258 259 259 260 260 262 264 263 261 258 255 254 255 257 258 257 256 258 258 257 258 261 265 267 267 267 267 268 267 266 265 265 266 267 266 264 263 264 264 264 265 265 265 266 268 267 266 268 269 270 272 274 277 279 281 283 285 286 287 289 291 292 294 295 296 297 298 298 298 298 297 295 295 295 294
246 250 254 260 264 265 265 263 255 254 258 260 260 260 260 260 261 261 261 259 258 259 259 258 260 260 259 258 257 258 261 263 263 266 269 269 268 267 266 266 265 265 265 264 264 264 264 264 264 265 266 267 268 268 268 268 267 267 270 272 275 276 276 276 278 280 283 285 286 287 288 289 291 293 294 295 296 298 300 300 298 296 297 297 295
250 254 257 261 265 265 266 265 258 253 255 257 257 259 259 259 258 258 259 257 255 257 259 260 261 262 262 261 260 261 262 260 259 265 270 272 271 267 265 264 264 264 264 263 261 261 262 263 264 267 269 271 271 270 268 268 269 269 271 275 278 279 277 277 277 278 280 281 283 284 285 287 289 290 292 293 295 297 299 299 298 298 298 298 296
255 257 259 261 263 264 266 266 262 257 256 256 256 258 259 258 256 256 255 254 251 252 254 254 256 260 262 262 262 262 261 261 263 266 269 270 270 268 265 262 262 262 261 261 261 262 263 265 267 269 271 273 272 270 267 267 268 269 271 273 275 276 276 276 277 277 277 277 278 280 283 284 286 287 289 292 293 295 297 296 296 297 298 298 297
259 261 263 264 264 266 268 269 268 264 260 258 256 255 256 257 257 257 257 256 254 255 256 254 254 257 259 260 261 261 261 261 261 261 262 263 264 264 263 260 260 261 261 261 262 263 264 264 265 265 267 268 269 269 268 266 265 266 268 269 269 270 270 271 273 274 274 273 274 277 280 282 284 286 288 290 292 294 294 293 292 293 294 296 297
262 264 266 266 266 266 268 269 269 266 263 261 257 254 255 259 260 259 259 259 258 258 259 258 257 258 260 262 263 265 264 262 259 258 259 260 260 261 262 262 261 263 264 263 261 261 260 260 260 261 262 262 263 265 267 267 266 266 266 266 267 267 267 268 272 274 274 274 275 276 278 280 283 285 286 289 291 293 293 292 291 291 292 293 294
265 266 267 267 267 267 267 268 268 267 266 265 263 260 259 260 262 262 262 261 261 260 258 258 258 260 262 264 264 264 265 264 263 262 262 263 263 263 263 264 264 263 264 264 263 262 261 261 260 260 262 262 263 265 267 268 268 267 266 267 267 267 267 268 269 270 272 274 275 276 278 281 283 285 286 288 288 289 290 290 290 291 292 292 292
264 266 267 267 267 267 268 267 267 268 267 267 266 266 265 263 263 265 266 266 264 261 259 259 260 262 265 266 265 264 265 266 268 268 268 269 270 267 265 265 265 263 262 263 264 263 262 261 261 261 262 263 263 265 266 267 268 268 267 267 268 269 271 271 271 270 272 274 275 276 278 279 280 282 283 285 287 287 286 285 285 287 289 289 289
263 264 265 266 267 268 268 267 266 266 265 265 265 265 265 264 264 264 265 266 265 263 262 262 262 263 266 268 268 268 268 270 271 272 271 270 270 269 268 267 264 263 262 261 261 261 261 260 261 261 261 262 263 264 264 265 266 267 266 266 267 269 271 274 274 274 275 275 274 276 277 278 280 281 282 284 285 286 286 284 284 284 285 286 287
261 261 262 264 266 267 268 268 267 265 263 263 263 262 261 261 261 261 262 262 262 263 264 265 264 263 265 266 268 269 270 270 272 273 272 269 268 269 269 268 264 261 259 258 258 258 258 259 261 261 260 260 261 262 263 264 264 264 265 266 267 268 269 271 273 274 274 274 274 274 276 278 280 282 284 285 285 285 285 285 285 286 286 287 288
260 260 260 261 262 264 264 265 266 265 263 262 261 261 260 260 259 259 259 259 260 262 263 265 264 263 264 265 267 270 271 272 273 273 271 271 271 271 270 269 266 262 258 255 255 256 256 257 259 260 260 259 260 260 262 265 266 266 266 267 268 269 269 270 271 272 272 272 272 273 274 276 279 282 284 285 285 285 284 284 285 286 287 287 289
259 259 259 259 260 261 261 262 263 264 264 263 261 260 260 260 260 261 260 259 259 260 261 262 262 261 261 262 265 268 270 271 271 270 271 275 279 280 277 273 270 266 261 256 255 255 254 254 255 257 259 259 260 261 263 264 267 268 269 270 270 271 271 271 272 272 271 271 271 272 273 274 276 279 281 283 284 284 285 285 285 285 286 287 288
259 258 258 258 257 258 259 260 261 262 262 262 261 261 260 260 260 261 261 259 258 258 258 259 260 260 258 257 259 261 260 260 262 266 273 279 282 283 282 282 284 279 268 261 257 254 252 253 254 257 259 260 261 263 265 265 266 269 271 271 271 271 271 272 273 272 269 269 270 272 273 273 275 278 280 281 282 282 283 284 285 285 285 287 288
257 256 257 257 256 256 257 258 259 260 259 259 259 260 260 260 259 259 259 258 257 256 256 255 256 256 253 250 249 251 252 256 262 268 272 274 274 275 278 287 298 295 278 264 258 255 252 253 256 257 259 261 262 264 264 265 266 268 270 271 271 271 271 271 272 271 269 269 270 272 273 274 276 277 279 280 281 281 281 282 282 283 284 286 289
254 253 253 254 256 257 257 257 258 258 257 256 256 258 260 259 257 256 257 258 257 256 255 255 255 255 253 250 249 251 255 261 267 271 272 270 271 275 279 286 296 299 285 266 259 258 259 260 260 259 259 261 264 265 265 266 267 267 267 269 271 271 271 270 269 269 269 270 271 273 274 275 275 276 277 278 280 280 280 280 280 280 282 285 287
251 250 249 249 252 255 255 255 256 256 255 255 255 258 259 257 255 254 255 256 256 255 254 255 256 257 258 258 258 259 261 263 265 268 271 273 274 276 279 281 286 294 291 275 264 268 273 271 266 260 258 259 263 265 265 266 268 268 268 268 268 269 269 268 267 267 269 272 273 273 274 274 275 276 276 277 278 278 279 279 279 280 281 283 285
249 249 248 245 246 251 253 252 250 250 251 251 251 251 250 249 249 249 250 252 253 255 255 255 256 258 260 262 264 265 264 265 265 266 267 270 271 272 273 273 274 278 280 274 268 269 276 277 273 266 262 261 262 263 264 267 271 273 273 271 269 268 267 267 267 269 272 274 274 274 274 275 277 278 278 278 277 278 279 279 279 280 281 282 283
247 247 247 244 242 245 249 249 247 247 247 244 243 244 245 246 247 249 250 251 252 253 255 256 257 259 261 263 265 266 265 266 267 267 265 265 266 267 267 267 265 262 260 260 261 261 263 267 269 270 271 270 269 269 270 271 274 276 277 275 272 269 266 265 266 269 271 272 272 273 274 276 278 279 279 279 279 279 279 280 280 281 281 282 283
246 245 244 243 242 242 244 245 246 246 246 244 243 245 249 251 253 253 254 254 254 253 253 254 256 259 261 262 263 265 266 267 268 267 266 264 264 264 265 264 263 261 258 256 256 257 257 260 264 268 269 270 270 270 271 272 273 274 275 275 275 273 271 270 269 270 271 272 272 274 276 277 277 277 277 278 279 279 280 281 281 281 282 282 284
246 245 244 244 244 242 240 241 242 243 244 246 247 248 251 254 255 256 256 255 255 254 254 254 255 257 259 260 262 264 265 267 267 266 265 264 263 262 262 262 262 262 261 260 259 259 260 263 266 268 268 268 268 268 269 270 271 272 273 275 276 277 277 277 276 276 274 273 274 275 276 276 276 276 277 277 278 278 279 281 281 281 282 283 284
246 245 244 244 245 243 240 238 240 242 245 249 250 252 253 255 257 257 257 256 255 254 253 253 254 254 256 259 261 262 263 264 265 265 265 264 264 263 262 262 262 262 262 262 262 263 264 265 266 267 267 267 267 267 268 269 270 271 272 273 274 275 275 276 278 278 276 275 276 277 277 277 277 278 278 278 278 278 279 280 281 281 282 283 284
253 253 248 243 242 243 243 242 244 246 248 250 252 254 255 256 257 257 257 256 255 253 252 252 253 253 255 257 258 260 261 261 262 263 264 264 263 263 263 263 262 262 261 261 261 262 263 263 264 265 265 266 266 267 268 269 270 272 272 273 273 273 273 275 277 277 276 277 278 279 278 278 279 280 280 279 279 280 280 280 281 281 282 282 283
257 257 254 248 243 242 243 244 246 248 249 251 253 254 255 256 257 256 255 254 253 252 252 252 252 253 254 256 257 259 260 260 260 261 262 263 263 263 263 262 262 262 261 261 262 262 262 262 263 264 264 265 266 267 267 268 270 272 273 274 274 274 274 276 277 277 277 278 279 279 279 280 281 281 280 280 281 281 280 280 280 281 281 281 281
255 254 253 252 249 245 243 245 248 250 251 252 253 254 255 255 256 255 254 252 251 251 251 252 253 254 255 256 257 258 259 260 261 261 261 262 263 263 263 263 263 262 262 262 263 263 264 265 266 266 267 268 268 269 270 270 272 273 273 274 275 275 276 276 276 277 277 277 277 278 278 279 280 280 280 281 281 281 281 281 281 280 280 280 280
255 254 252 251 250 247 247 247 249 251 252 252 252 253 254 254 254 254 252 250 250 250 250 251 252 253 255 256 257 258 259 260 261 262 263 263 263 264 264 264 264 264 263 263 263 263 264 265 267 268 270 271 273 273 274 274 275 275 275 276 276 276 276 276 276 277 277 277 277 277 278 278 279 279 279 280 280 280 280 280 280 280 280 280 280
255 254 252 250 248 247 247 247 248 249 250 250 249 250 250 250 251 251 250 249 249 250 251 252 253 254 256 257 257 258 259 258 258 260 261 262 263 264 265 265 264 264 263 263 263 263 263 264 265 267 269 272 275 276 277 277 276 276 275 276 276 277 277 277 277 278 278 278 278 279 279 279 279 279 279 280 279 280 280 280 280 280 280 280 280
259 257 256 253 248 245 245 246 246 246 247 247 248 248 248 248 248 247 246 246 247 249 251 252 254 256 258 259 259 259 259 258 258 258 259 261 263 264 265 265 266 265 265 265 264 264 265 265 266 267 269 271 272 274 275 276 276 276 276 276 277 277 277 277 277 277 278 278 279 279 279 280 280 280 280 280 280 280 280 281 281 281 281 281 281
264 262 260 259 256 251 247 246 247 249 249 249 250 251 251 251 250 249 248 247 248 250 252 253 254 256 258 258 259 259 259 259 258 258 259 261 262 264 265 265 266 267 267 267 267 267 267 268 268 269 269 270 272 273 274 274 274 275 275 276 276 276 276 276 277 276 276 277 277 278 278 278 279 279 280 280 280 281 281 281 282 282 282 282 282
266 264 262 261 260 259 255 251 249 250 251 252 252 253 253 254 253 253 252 252 252 252 253 254 255 256 256 256 256 258 260 260 260 259 259 260 261 263 265 266 267 267 268 268 268 269 269 270 271 271 271 272 273 274 274 274 274 274 274 274 275 275 275 276 276 276 277 277 277 277 278 278 278 278 279 279 279 280 280 280 281 281 282 282 283
264 264 263 261 260 260 259 257 254 253 253 253 253 254 254 254 254 254 254 254 254 254 254 255 255 255 255 256 256 257 258 260 261 261 261 261 262 263 264 266 267 268 268 269 270 270 271 271 272 273 273 273 273 274 274 275 275 275 275 274 274 275 275 275 276 276 277 278 278 278 279 279 279 279 279 279 279 279 279 279 279 280 280 281 282
262 262 261 261 260 259 259 259 258 257 257 257 256 256 256 256 256 256 256 255 256 255 255 255 254 254 255 255 256 257 257 258 259 260 261 262 262 263 264 264 265 266 267 268 270 271 271 271 271 271 271 272 273 274 275 275 276 276 276 276 276 275 275 275 276 277 277 278 278 278 278 279 279 279 279 279 279 280 280 280 280 280 280 281 281
260 259 259 259 259 258 257 257 258 259 259 260 259 259 259 258 258 257 257 257 257 256 256 256 255 255 255 255 256 257 257 258 258 259 260 261 261 262 262 262 263 263 265 266 267 267 268 268 268 269 270 270 271 271 272 273 274 275 276 276 277 277 277 276 277 277 277 277 277 277 277 277 277 277 277 278 278 278 279 279 279 280 280 280 280
260 258 257 257 257 257 257 256 256 256 257 259 259 258 258 257 257 257 256 257 257 257 257 257 257 256 255 256 257 258 259 259 259 259 260 260 261 261 262 263 263 264 265 265 265 266 266 266 266 267 268 269 269 270 270 270 271 271 272 273 275 276 277 278 279 279 278 278 278 278 277 277 277 277 277 277 277 277 278 278 278 279 279 279 279
261 260 258 257 256 256 256 256 255 254 254 255 256 255 254 254 254 254 254 254 255 256 257 258 258 258 257 256 257 258 260 260 261 261 261 261 262 262 262 263 264 265 266 266 266 266 267 267 267 267 268 268 269 270 271 271 271 271 272 272 273 274 275 276 277 277 278 279 279 279 279 279 279 279 279 279 279 278 278 278 278 278 279 279 280
260 260 259 258 257 256 255 255 255 254 254 254 254 253 251 250 251 251 252 252 253 254 255 256 257 258 258 258 257 258 259 260 261 262 262 262 263 263 263 264 265 265 266 266 267 267 268 268 268 268 269 269 270 271 271 272 272 272 273 274 274 275 275 276 276 276 276 277 277 278 278 279 279 280 280 280 281 280 280 280 280 280 280 280 280
260 260 259 258 257 256 256 256 256 256 255 254 254 253 250 249 249 250 251 252 252 253 254 255 256 257 258 259 259 259 260 260 261 261 262 262 263 263 264 265 265 266 266 266 267 268 268 268 268 269 269 270 271 271 271 272 272 273 274 274 275 276 276 277 277 277 277 277 277 277 277 277 278 278 279 280 281 281 281 281 282 282 282 281 281
258 257 257 258 257 257 257 256 256 256 256 255 254 253 252 250 250 250 251 253 254 254 254 255 256 257 257 258 259 260 261 261 262 262 263 263 263 264 264 265 265 266 266 267 267 268 268 268 269 269 270 270 270 271 271 271 272 272 273 274 275 276 276 277 277 277 277 278 278 278 278 278 278 278 278 278 279 279 280 280 280 281 281 281 281
257 256 256 257 257 257 257 257 256 256 256 256 256 255 255 254 254 253 253 254 254 255 255 256 257 257 258 258 259 260 260 261 262 264 265 265 265 265 266 266 266 267 267 267 267 268 268 268 269 269 270 270 270 270 271 271 272 273 274 275 275 276 276 277 277 278 278 278 278 278 279 279 279 278 278 278 278 278 278 278 278 279 279 279 279
258 258 258 258 257 257 256 256 256 256 256 256 257 257 257 257 257 257 256 255 255 255 255 256 257 257 258 258 259 259 260 261 262 264 265 266 267 267 267 267 267 268 268 268 268 268 269 269 269 269 270 270 270 271 271 272 272 274 275 276 276 276 277 277 277 278 278 278 278 279 279 279 279 279 279 279 279 279 279 279 279 279 279 279 279
258 259 259 259 259 258 257 257 256 256 256 255 256 256 257 257 258 258 258 258 257 256 255 255 256 257 257 258 259 260 261 262 263 264 264 265 266 266 267 267 267 268 268 268 269 269 269 270 270 270 271 271 271 272 273 273 274 274 275 276 276 276 277 277 277 277 278 278 279 279 279 279 279 279 279 280 280 280 280 280 281 281 281 281 281
258 258 259 260 260 259 259 258 258 257 256 255 255 256 256 257 257 258 258 258 258 258 258 257 257 257 258 258 259 260 261 262 262 263 263 264 264 265 265 266 266 267 267 268 268 268 269 270 270 271 271 272 272 273 273 274 274 275 275 276 276 276 277 277 277 278 279 279 279 279 279 279 279 279 280 280 280 281 281 282 282 283 283 283 283
Height
5939 5940 5941 5943 5944 5946 5947 5948 5949 5950 5951 5952 5953 5954 5955 5956 5957 5958 5959 5960 5961 5961 5962 5963 5963 5964 5964 5965 5965 5966 5966 5967 5967 5967 5967 5967 5967 5968 5968 5968 5967 5967 5967 5967 5966 5966 5966 5966 5966 5966 5966 5966 5966 5966 5965 5965 5965 5966 5966 5966 5966 5965 5964 5964 5963 5963 5963 5963 5962 5962 5962 5962 5962 5962 5961 5961 5960 5959 5958 5958 5957 5957 5956 5956 5956
5937 5939 5940 5941 5943 5945 5946 5947 5948 5949 5950 5951 5952 5953 5954 5955 5956 5957 5958 5959 5959 5960 5961 5962 5962 5963 5964 5964 5964 5965 5965 5966 5966 5966 5966 5966 5966 5967 5967 5967 5967 5967 5967 5967 5967 5966 5966 5966 5966 5966 5966 5966 5965 5965 5965 5965 5965 5964 5964 5964 5965 5965 5965 5964 5964 5963 5963 5963 5962 5962 5961 5961 5961 5960 5960 5959 5958 5958 5957 5957 5956 5956 5955 5955 5955
5936 5937 5939 5940 5941 5943 5944 5945 5947 5948 5948 5949 5950 5951 5952 5953 5954 5955 5956 5957 5958 5959 5960 5960 5961 5962 5963 5963 5963 5964 5964 5964 5965 5965 5965 5965 5966 5966 5966 5966 5966 5967 5966 5966 5966 5966 5966 5966 5966 5966 5966 5966 5965 5965 5965 5965 5965 5964 5964 5964 5964 5965 5965 5964 5964 5963 5963 5963 5962 5962 5961 5961 5960 5960 5959 5958 5957 5957 5956 5956 5955 5955 5955 5955 5955
5935 5936 5937 5938 5940 5941 5942 5944 5945 5946 5947 5947 5948 5949 5950 5952 5953 5954 5955 5956 5956 5957 5958 5959 5960 5961 5961 5962 5962 5962 5963 5963 5963 5964 5964 5964 5964 5965 5965 5965 5966 5966 5966 5966 5966 5966 5966 5966 5966 5966 5966 5966 5966 5965 5965 5965 5964 5964 5964 5963 5963 5963 5963 5963 5963 5963 5963 5963 5962 5962 5961 5961 5960 5959 5959 5958 5957 5956 5956 5956 5955 5955 5955 5954 5954
5934 5935 5936 5937 5938 5939 5940 5942 5943 5944 5944 5945 5946 5947 5948 5949 5951 5952 5953 5954 5955 5955 5956 5957 5958 5959 5959 5960 5961 5961 5961 5961 5962 5962 5963 5963 5963 5963 5963 5964 5964 5965 5965 5965 5965 5965 5965 5965 5965 5965 5965 5965 5965 5965 5964 5964 5964 5963 5963 5963 5962 5962 5962 5962 5962 5962 5962 5962 5962 5962 5961 5960 5960 5959 5959 5958 5957 5956 5956 5955 5955 5954 5954 5953 5953
5932 5933 5935 5935 5936 5937 5938 5939 5940 5941 5942 5943 5944 5945 5946 5947 5949 5950 5951 5952 5953 5954 5955 5955 5956 5956 5957 5958 5959 5959 5960 5960 5960 5961 5961 5961 5962 5962 5962 5962 5963 5963 5963 5963 5964 5964 5964 5964 5964 5964 5964 5964 5964 5964 5964 5963 5963 5963 5962 5962 5962 5961 5961 5962 5962 5962 5962 5962 5961 5961 5960 5960 5959 5959 5958 5958 5957 5956 5955 5954 5954 5954 5953 5952 5951
5930 5931 5933 5934 5935 5936 5936 5937 5938 5939 5940 5941 5942 5943 5943 5945 5946 5947 5948 5949 5950 5951 5952 5953 5953 5954 5955 5955 5956 5957 5957 5958 5958 5959 5959 5960 5960 5960 5960 5961 5961 5961 5961 5961 5961 5962 5962 5962 5962 5963 5963 5963 5963 5963 5962 5962 5962 5962 5962 5961 5961 5961 5961 5961 5961 5961 5961 5961 5960 5960 5959 5959 5959 5958 5958 5957 5956 5955 5955 5954 5953 5952 5952 5951 5950
5927 5929 5930 5932 5933 5933 5934 5935 5936 5936 5937 5938 5939 5940 5941 5942 5943 5944 5946 5947 5948 5949 5950 5950 5951 5951 5952 5953 5953 5954 5955 5955 5956 5957 5957 5958 5958 5958 5959 5959 5959 5959 5959 5959 5959 5959 5959 5959 5960 5961 5961 5961 5961 5961 5961 5961 5961 5961 5961 5961 5960 5960 5960 5960 5960 5960 5960 5959 5959 5958 5958 5958 5957 5957 5956 5956 5955 5954 5954 5953 5952 5951 5950 5949 5947
5925 5926 5928 5929 5930 5931 5931 5932 5933 5934 5935 5936 5937 5938 5938 5939 5941 5942 5943 5944 5945 5946 5947 5948 5948 5949 5949 5950 5950 5951 5952 5952 5953 5954 5955 5956 5956 5957 5957 5957 5957 5957 5957 5957 5958 5957 5957 5957 5957 5958 5959 5959 5959 5960 5960 5960 5960 5960 5960 5960 5960 5960 5960 5960 5959 5959 5958 5958 5957 5957 5956 5956 5955 5955 5954 5954 5954 5953 5952 5951 5951 5950 5949 5947 5945
5923 5924 5925 5926 5927 5928 5928 5929 5931 5933 5933 5935 5935 5936 5937 5937 5938 5940 5940 5941 5942 5944 5945 5945 5946 5946 5946 5946 5947 5948 5948 5948 5949 5951 5953 5954 5954 5955 5955 5955 5955 5955 5955 5955 5955 5955 5955 5955 5955 5955 5956 5957 5958 5958 5958 5959 5958 5958 5958 5958 5958 5958 5959 5958 5958 5958 5957 5956 5955 5955 5955 5954 5953 5953 5952 5951 5951 5950 5950 5949 5949 5948 5947 5946 5944
5921 5922 5923 5923 5924 5925 5925 5928 5931 5932 5931 5932 5933 5933 5934 5935 5936 5937 5938 5938 5940 5941 5942 5942 5943 5943 5943 5943 5944 5944 5945 5945 5946 5948 5950 5951 5952 5952 5953 5953 5952 5952 5953 5953 5952 5952 5953 5953 5953 5953 5953 5954 5955 5956 5956 5956 5956 5956 5956 5957 5957 5957 5957 5957 5956 5956 5955 5955 5954 5953 5953 5952 5951 5950 5950 5949 5949 5948 5948 5947 5947 5946 5945 5944 5944
5919 5920 5921 5921 5922 5922 5922 5925 5929 5930 5928 5929 5930 5931 5931 5932 5932 5934 5935 5935 5936 5938 5939 5939 5939 5940 5940 5940 5940 5941 5942 5942 5943 5945 5947 5948 5948 5949 5949 5950 5949 5949 5949 5950 5950 5950 5950 5950 5950 5950 5950 5951 5952 5953 5953 5953 5954 5954 5954 5954 5955 5955 5955 5955 5954 5954 5953 5953 5952 5951 5951 5951 5949 5948 5948 5948 5947 5946 5946 5945 5944 5943 5943 5942 5942
5916 5917 5918 5919 5920 5920 5920 5921 5924 5926 5925 5924 5926 5927 5927 5928 5929 5930 5932 5932 5933 5934 5935 5936 5936 5936 5937 5937 5937 5937 5938 5939 5940 5942 5944 5944 5944 5944 5945 5946 5946 5946 5946 5946 5946 5946 5947 5947 5947 5947 5948 5949 5949 5950 5950 5950 5950 5951 5951 5952 5953 5953 5953 5953 5952 5952 5951 5951 5950 5949 5949 5949 5948 5946 5946 5946 5946 5945 5944 5943 5941 5941 5940 5939 5938
5913 5914 5915 5916 5917 5917 5917 5918 5920 5922 5922 5921 5922 5922 5923 5924 5925 5926 5928 5928 5929 5931 5931 5932 5933 5933 5933 5933 5933 5934 5936 5937 5938 5939 5940 5940 5939 5939 5940 5941 5941 5942 5942 5942 5942 5943 5944 5945 5946 5946 5946 5946 5945 5946 5947 5947 5948 5948 5948 5949 5949 5950 5950 5950 5950 5950 5949 5948 5948 5947 5946 5946 5946 5945 5944 5944 5944 5944 5943 5942 5940 5939 5938 5937 5935
5909 5911 5912 5913 5914 5915 5914 5914 5916 5918 5919 5920 5920 5920 5920 5920 5921 5922 5924 5924 5925 5926 5928 5928 5929 5929 5928 5928 5929 5930 5932 5933 5934 5934 5935 5935 5935 5934 5935 5936 5937 5937 5938 5939 5939 5940 5941 5942 5942 5942 5943 5942 5942 5942 5943 5944 5944 5945 5945 5946 5946 5946 5946 5946 5946 5946 5946 5945 5945 5945 5944 5944 5943 5942 5942 5941 5942 5942 5941 5940 5938 5937 5937 5935 5933
5904 5906 5908 5910 5911 5911 5911 5912 5912 5912 5914 5915 5917 5917 5917 5917 5917 5918 5919 5919 5920 5923 5925 5925 5924 5924 5924 5925 5926 5927 5928 5928 5929 5930 5931 5930 5930 5929 5929 5931 5933 5934 5935 5935 5935 5935 5936 5937 5937 5938 5939 5938 5938 5938 5939 5940 5940 5941 5942 5942 5942 5942 5942 5942 5942 5943 5942 5942 5943 5942 5942 5941 5940 5940 5939 5939 5939 5939 5939 5937 5936 5935 5934 5933 5931
5900 5902 5904 5906 5906 5907 5908 5909 5909 5908 5909 5910 5911 5913 5914 5914 5914 5914 5915 5916 5917 5920 5921 5920 5919 5919 5920 5921 5922 5923 5924 5924 5925 5926 5926 5926 5926 5926 5925 5926 5928 5930 5930 5930 5931 5931 5932 5932 5933 5935 5935 5934 5935 5936 5936 5936 5937 5937 5938 5938 5939 5939 5938 5939 5939 5939 5939 5939 5940 5939 5939 5938 5937 5937 5936 5936 5936 5936 5936 5935 5933 5932 5931 5931 5930
5897 5898 5900 5901 5902 5903 5904 5906 5906 5906 5906 5907 5907 5907 5909 5910 5911 5911 5912 5912 5913 5915 5916 5916 5915 5915 5915 5916 5917 5919 5919 5920 5920 5921 5921 5921 5921 5921 5921 5921 5923 5924 5925 5926 5927 5928 5928 5928 5929 5931 5931 5931 5932 5932 5932 5933 5933 5933 5934 5934 5935 5935 5935 5935 5936 5935 5936 5936 5936 5936 5936 5935 5935 5934 5933 5933 5933 5933 5933 5933 5931 5930 5929 5928 5927
5892 5894 5896 5897 5897 5898 5899 5901 5903 5904 5904 5904 5903 5903 5904 5905 5907 5908 5908 5908 5909 5910 5910 5911 5911 5911 5912 5912 5912 5914 5915 5915 5915 5915 5915 5915 5915 5916 5916 5917 5917 5918 5919 5920 5922 5923 5923 5924 5925 5926 5927 5927 5928 5928 5928 5928 5928 5929 5929 5930 5930 5931 5931 5932 5932 5932 5932 5933 5932 5932 5932 5931 5931 5931 5930 5930 5930 5930 5930 5929 5928 5927 5926 5925 5924
5888 5889 5891 5892 5893 5893 5894 5895 5897 5899 5900 5900 5900 5900 5901 5902 5903 5904 5904 5904 5905 5905 5906 5907 5907 5908 5908 5908 5908 5908 5909 5909 5909 5909 5910 5910 5910 5910 5911 5911 5912 5912 5913 5914 5916 5917 5918 5919 5920 5921 5922 5923 5923 5924 5924 5924 5924 5924 5925 5925 5926 5927 5927 5928 5928 5928 5928 5928 5928 5928 5928 5928 5927 5927 5927 5926 5926 5926 5926 5925 5924 5924 5923 5922 5921
5883 5884 5886 5888 5888 5889 5889 5890 5891 5893 5894 5895 5896 5897 5897 5897 5898 5899 5900 5901 5901 5901 5901 5902 5902 5903 5904 5904 5904 5905 5904 5904 5904 5904 5905 5905 5906 5906 5905 5905 5905 5906 5907 5908 5909 5911 5913 5915 5915 5916 5917 5918 5918 5919 5919 5919 5919 5920 5921 5921 5922 5922 5923 5923 5924 5924 5924 5924 5924 5924 5924 5924 5924 5923 5923 5922 5922 5922 5921 5921 5920 5920 5919 5918 5917
5878 5879 5881 5882 5883 5884 5885 5885 5886 5887 5889 5890 5891 5892 5892 5893 5893 5894 5895 5896 5896 5896 5896 5897 5898 5899 5900 5900 5901 5902 5901 5900 5900 5900 5901 5901 5901 5901 5901 5900 5899 5900 5900 5901 5903 5905 5908 5909 5909 5909 5911 5912 5912 5913 5914 5915 5915 5915 5916 5916 5917 5918 5918 5919 5919 5919 5920 5919 5920 5920 5920 5920 5920 5920 5919 5918 5918 5917 5917 5916 5916 5915 5915 5914 5913
5873 5874 5875 5876 5878 5879 5880 5880 5881 5882 5884 5884 5885 5886 5888 5889 5889 5889 5890 5890 5891 5891 5892 5892 5893 5895 5896 5897 5898 5898 5897 5896 5895 5896 5898 5897 5896 5897 5897 5896 5895 5894 5894 5895 5897 5900 5902 5903 5903 5903 5905 5906 5907 5908 5910 5910 5911 5911 5911 5912 5912 5913 5913 5914 5914 5915 5914 5914 5915 5915 5915 5915 5915 5915 5915 5914 5913 5913 5912 5912 5911 5911 5910 5909 5909
5867 5869 5870 5871 5872 5873 5875 5876 5876 5877 5879 5879 5880 5881 5882 5883 5884 5884 5884 5885 5886 5886 5887 5888 5889 5890 5891 5892 5892 5892 5892 5892 5891 5893 5894 5894 5892 5892 5892 5892 5892 5890 5889 5889 5892 5894 5897 5898 5898 5898 5899 5901 5902 5903 5904 5906 5906 5906 5906 5907 5907 5908 5908 5909 5909 5909 5909 5910 5911 5911 5910 5910 5910 5911 5910 5909 5908 5908 5908 5907 5907 5906 5906 5905 5904
5862 5864 5865 5866 5867 5868 5869 5871 5872 5873 5874 5874 5875 5876 5877 5878 5879 5879 5879 5880 5881 5881 5882 5883 5884 5885 5886 5887 5887 5887 5888 5888 5888 5888 5889 5890 5890 5889 5889 5889 5889 5887 5886 5886 5888 5890 5892 5893 5893 5894 5895 5896 5897 5898 5899 5900 5901 5901 5901 5902 5902 5902 5903 5904 5904 5904 5905 5906 5906 5906 5905 5905 5906 5906 5905 5904 5904 5903 5903 5903 5902 5901 5901 5901 5900
5856 5858 5859 5861 5862 5863 5864 5866 5867 5868 5869 5870 5871 5872 5873 5873 5873 5874 5875 5876 5876 5877 5878 5878 5878 5879 5881 5882 5883 5883 5883 5883 5884 5884 5885 5885 5886 5885 5885 5886 5886 5885 5885 5885 5886 5887 5889 5889 5889 5889 5890 5891 5892 5893 5894 5895 5895 5895 5896 5896 5897 5897 5898 5898 5899 5899 5900 5901 5901 5900 5900 5900 5901 5901 5900 5900 5899 5899 5898 5898 5897 5897 5896 5896 5896
5851 5852 5854 5855 5857 5859 5860 5861 5862 5863 5864 5865 5867 5868 5868 5868 5868 5868 5870 5870 5871 5872 5873 5873 5874 5874 5876 5877 5878 5878 5877 5878 5879 5880 5881 5881 5882 5882 5882 5883 5883 5883 5884 5884 5884 5885 5885 5885 5885 5885 5886 5888 5889 5890 5890 5891 5891 5891 5891 5891 5891 5891 5892 5893 5894 5895 5895 5895 5895 5894 5894 5896 5896 5896 5895 5895 5894 5894 5893 5893 5892 5892 5891 5891 5891
5845 5847 5848 5850 5851 5853 5855 5856 5857 5857 5859 5860 5861 5861 5862 5862 5863 5863 5864 5865 5866 5867 5868 5868 5869 5869 5870 5872 5873 5873 5872 5873 5874 5875 5876 5877 5878 5878 5879 5879 5880 5881 5881 5881 5882 5882 5882 5882 5882 5883 5884 5884 5885 5886 5886 5887 5887 5887 5887 5887 5887 5887 5887 5889 5890 5890 5890 5890 5889 5888 5889 5891 5891 5890 5890 5890 5889 5888 5888 5887 5887 5887 5886 5886 5886
5839 5841 5842 5844 5845 5847 5848 5850 5851 5852 5852 5854 5855 5856 5856 5857 5858 5859 5860 5860 5861 5862 5862 5863 5864 5864 5865 5867 5868 5868 5868 5869 5869 5870 5871 5872 5873 5874 5875 5875 5876 5877 5877 5878 5878 5878 5878 5879 5879 5880 5881 5881 5881 5882 5882 5882 5883 5883 5883 5883 5882 5882 5883 5885 5886 5885 5885 5885 5884 5884 5885 5886 5885 5884 5884 5884 5884 5883 5882 5882 5882 5881 5881 5881 5880
5833 5834 5836 5838 5839 5840 5841 5842 5844 5845 5845 5847 5849 5850 5851 5851 5852 5854 5855 5855 5856 5857 5857 5858 5859 5859 5859 5861 5862 5863 5864 5864 5865 5865 5866 5867 5868 5869 5870 5871 5871 5872 5873 5873 5874 5874 5874 5874 5875 5876 5876 5876 5877 5877 5877 5878 5879 5879 5879 5879 5878 5878 5879 5880 5880 5880 5880 5880 5879 5880 5881 5880 5880 5879 5879 5879 5878 5877 5877 5876 5876 5875 5875 5875 5875
5826 5828 5831 5832 5832 5833 5833 5835 5836 5838 5839 5840 5842 5843 5845 5846 5847 5847 5849 5850 5851 5852 5852 5853 5854 5855 5855 5855 5856 5858 5859 5860 5860 5860 5861 5862 5863 5864 5865 5865 5866 5867 5867 5868 5869 5869 5869 5870 5870 5870 5871 5871 5872 5872 5872 5873 5874 5874 5874 5874 5874 5874 5875 5875 5876 5876 5875 5875 5875 5875 5875 5874 5874 5874 5874 5873 5872 5872 5871 5871 5870 5869 5869 5869 5868
5820 5822 5824 5825 5825 5826 5827 5828 5830 5831 5833 5834 5835 5837 5838 5840 5840 5841 5842 5844 5845 5846 5847 5848 5849 5850 5850 5851 5851 5852 5853 5855 5856 5856 5857 5857 5858 5859 5860 5860 5861 5861 5862 5863 5863 5864 5864 5865 5865 5865 5866 5866 5867 5867 5868 5868 5868 5869 5869 5869 5869 5869 5870 5871 5871 5870 5870 5870 5870 5869 5868 5868 5868 5868 5868 5867 5867 5866 5866 5865 5864 5863 5863 5862 5862
5814 5815 5817 5818 5819 5819 5821 5822 5823 5825 5827 5828 5829 5830 5832 5833 5834 5835 5836 5838 5839 5840 5841 5842 5843 5844 5845 5846 5846 5847 5848 5849 5850 5851 5852 5852 5853 5854 5854 5855 5856 5856 5857 5858 5858 5858 5859 5859 5860 5860 5861 5861 5862 5862 5862 5863 5863 5863 5863 5863 5863 5863 5864 5865 5864 5864 5864 5864 5864 5863 5862 5862 5862 5862 5861 5861 5861 5860 5859 5859 5858 5857 5857 5856 5856
5807 5808 5810 5811 5812 5813 5815 5816 5817 5819 5820 5821 5822 5824 5825 5826 5828 5829 5830 5831 5833 5834 5835 5836 5837 5838 5839 5840 5841 5842 5842 5842 5843 5845 5846 5847 5848 5848 5849 5849 5850 5851 5852 5852 5853 5853 5853 5853 5854 5855 5855 5856 5856 5856 5856 5857 5857 5857 5857 5857 5857 5858 5858 5858 5858 5858 5858 5858 5858 5857 5857 5856 5856 5856 5855 5855 5854 5854 5853 5852 5852 5851 5850 5850 5850
5801 5801 5803 5804 5806 5807 5808 5810 5811 5812 5813 5814 5815 5817 5818 5819 5821 5822 5823 5824 5826 5827 5828 5829 5830 5831 5832 5834 5836 5836 5836 5836 5837 5838 5839 5840 5841 5841 5842 5843 5844 5845 5846 5846 5847 5847 5847 5847 5847 5848 5849 5849 5849 5850 5850 5851 5851 5851 5851 5851 5851 5851 5851 5851 5851 5851 5851 5851 5851 5851 5850 5850 5849 5849 5849 5848 5848 5847 5846 5845 5845 5844 5844 5843 5842
5795 5796 5796 5797 5799 5800 5802 5803 5804 5805 5806 5807 5808 5809 5811 5812 5813 5815 5816 5818 5819 5820 5821 5823 5824 5825 5825 5828 5830 5830 5829 5829 5831 5832 5832 5833 5834 5834 5835 5836 5837 5838 5839 5839 5840 5840 5841 5841 5841 5842 5842 5843 5842 5842 5843 5843 5843 5844 5844 5844 5844 5844 5844 5844 5844 5844 5843 5843 5843 5843 5843 5843 5842 5841 5841 5841 5840 5839 5838 5838 5837 5837 5836 5835 5834
5789 5790 5790 5791 5792 5793 5794 5795 5797 5798 5799 5800 5801 5802 5804 5805 5806 5807 5809 5811 5812 5813 5814 5816 5817 5818 5819 5822 5824 5822 5820 5822 5824 5825 5825 5826 5827 5827 5828 5829 5829 5830 5831 5832 5832 5833 5833 5834 5835 5836 5836 5836 5836 5836 5836 5836 5835 5835 5836 5836 5837 5837 5837 5837 5836 5836 5836 5835 5835 5835 5835 5834 5834 5833 5833 5832 5831 5830 5830 5829 5829 5828 5827 5826 5825
5781 5782 5783 5784 5785 5786 5787 5788 5789 5790 5791 5793 5794 5795 5796 5798 5799 5800 5801 5803 5804 5806 5807 5808 5810 5811 5813 5816 5816 5813 5813 5815 5818 5818 5818 5819 5820 5820 5821 5821 5821 5822 5823 5823 5823 5824 5826 5828 5828 5828 5828 5828 5829 5829 5829 5828 5828 5828 5828 5829 5829 5829 5829 5829 5828 5828 5828 5828 5828 5827 5827 5826 5825 5824 5824 5823 5822 5821 5821 5820 5819 5818 5817 5816 5815
5772 5773 5774 5776 5777 5778 5780 5781 5782 5783 5784 5785 5786 5787 5789 5790 5791 5792 5793 5795 5796 5798 5799 5800 5802 5804 5806 5807 5807 5806 5806 5808 5808 5809 5810 5812 5813 5813 5813 5813 5814 5814 5815 5815 5815 5817 5819 5820 5819 5819 5819 5820 5820 5821 5821 5820 5819 5820 5821 5821 5822 5821 5821 5821 5820 5819 5820 5820 5819 5819 5818 5818 5817 5816 5815 5814 5813 5813 5812 5811 5810 5808 5807 5806 5806
5764 5765 5766 5767 5769 5770 5772 5773 5775 5776 5777 5777 5779 5780 5781 5782 5783 5784 5785 5787 5788 5790 5790 5792 5795 5797 5798 5798 5799 5800 5800 5800 5800 5800 5802 5804 5805 5806 5806 5806 5806 5806 5806 5807 5808 5810 5813 5813 5811 5809 5810 5811 5811 5812 5812 5811 5810 5811 5811 5812 5813 5813 5813 5812 5811 5811 5812 5811 5811 5810 5809 5808 5807 5807 5806 5805 5804 5803 5803 5801 5800 5799 5799 5798 5796
5756 5757 5758 5759 5760 5761 5763 5764 5766 5768 5769 5770 5771 5773 5774 5775 5776 5776 5778 5779 5780 5781 5782 5783 5786 5789 5789 5789 5791 5792 5792 5792 5793 5793 5794 5795 5797 5797 5798 5798 5798 5797 5798 5800 5801 5802 5804 5805 5803 5800 5800 5801 5802 5803 5803 5803 5802 5802 5802 5802 5803 5803 5803 5803 5803 5803 5803 5803 5802 5801 5800 5799 5798 5797 5796 5795 5794 5794 5793 5791 5791 5790 5789 5788 5786
5747 5748 5750 5750 5751 5752 5753 5755 5758 5759 5760 5761 5763 5765 5765 5766 5768 5769 5770 5771 5772 5773 5774 5775 5778 5780 5781 5782 5783 5783 5783 5784 5785 5785 5786 5787 5788 5789 5789 5789 5789 5790 5792 5793 5794 5793 5795 5796 5795 5792 5792 5793 5794 5794 5795 5795 5794 5793 5793 5793 5794 5794 5794 5794 5794 5795 5794 5793 5792 5791 5790 5789 5788 5787 5787 5786 5785 5784 5783 5782 5781 5780 5778 5776 5774
5737 5738 5740 5741 5742 5743 5744 5747 5749 5751 5752 5753 5755 5756 5756 5758 5759 5760 5761 5763 5764 5765 5766 5767 5769 5771 5773 5774 5774 5774 5774 5775 5776 5777 5778 5779 5780 5780 5780 5780 5780 5782 5784 5785 5785 5785 5786 5787 5786 5785 5784 5784 5785 5785 5786 5787 5786 5785 5785 5785 5785 5785 5786 5786 5785 5784 5784 5783 5782 5781 5780 5778 5777 5777 5776 5775 5774 5773 5772 5771 5770 5768 5767 5765 5763
5727 5728 5729 5731 5733 5735 5736 5738 5740 5742 5744 5746 5746 5747 5748 5749 5749 5751 5752 5754 5755 5757 5758 5758 5759 5762 5764 5765 5766 5765 5766 5766 5768 5769 5769 5770 5771 5771 5772 5772 5773 5774 5775 5775 5775 5776 5777 5777 5776 5776 5776 5776 5776 5776 5776 5777 5777 5776 5776 5777 5777 5777 5777 5777 5776 5775 5774 5773 5772 5771 5769 5767 5766 5766 5765 5764 5763 5762 5761 5759 5758 5757 5756 5754 5753
5717 5717 5718 5720 5724 5726 5727 5729 5731 5733 5735 5737 5737 5738 5739 5740 5740 5741 5743 5745 5746 5748 5749 5750 5751 5752 5753 5755 5756 5757 5758 5759 5760 5760 5760 5761 5761 5762 5763 5764 5764 5765 5766 5766 5766 5767 5767 5767 5767 5767 5767 5767 5767 5767 5767 5767 5766 5766 5767 5768 5768 5768 5768 5767 5766 5765 5764 5763 5762 5761 5759 5757 5757 5755 5754 5753 5751 5750 5749 5747 5746 5745 5744 5743 5741
5709 5708 5707 5710 5713 5716 5717 5719 5721 5724 5726 5728 5728 5729 5731 5732 5732 5733 5734 5736 5738 5739 5740 5741 5742 5743 5744 5745 5746 5748 5750 5751 5751 5751 5751 5752 5753 5753 5754 5755 5756 5756 5757 5757 5757 5757 5757 5757 5758 5758 5758 5758 5758 5757 5757 5757 5757 5756 5758 5759 5759 5758 5758 5757 5755 5755 5754 5753 5752 5751 5749 5748 5747 5746 5744 5742 5740 5738 5737 5736 5734 5733 5732 5731 5729
5699 5699 5699 5700 5703 5706 5708 5710 5712 5715 5717 5718 5718 5720 5721 5722 5724 5725 5727 5728 5729 5730 5731 5732 5733 5734 5735 5736 5737 5739 5740 5741 5741 5742 5742 5743 5744 5745 5745 5746 5747 5747 5748 5749 5749 5748 5748 5748 5748 5749 5749 5749 5749 5748 5748 5748 5747 5747 5749 5751 5750 5749 5748 5747 5745 5745 5744 5742 5741 5740 5739 5738 5737 5736 5734 5732 5730 5727 5726 5725 5723 5721 5720 5718 5717
5688 5689 5690 5692 5694 5696 5698 5700 5703 5705 5707 5708 5709 5711 5712 5713 5714 5717 5719 5720 5720 5722 5723 5724 5725 5725 5726 5727 5729 5730 5731 5732 5732 5732 5733 5734 5735 5735 5736 5737 5738 5738 5739 5739 5739 5739 5739 5739 5739 5740 5740 5740 5739 5738 5738 5738 5737 5737 5739 5741 5740 5739 5738 5737 5735 5735 5733 5732 5730 5729 5728 5727 5726 5724 5723 5721 5719 5718 5716 5715 5713 5711 5709 5708 5706
5678 5679 5681 5683 5685 5687 5688 5691 5693 5695 5697 5699 5700 5701 5702 5703 5705 5707 5709 5710 5712 5713 5715 5715 5716 5717 5718 5719 5720 5721 5722 5723 5724 5724 5724 5725 5725 5726 5727 5728 5728 5729 5729 5729 5729 5729 5729 5729 5730 5730 5730 5730 5730 5729 5729 5729 5728 5729 5730 5730 5729 5728 5728 5726 5725 5724 5722 5721 5720 5719 5718 5716 5715 5713 5711 5710 5708 5707 5705 5703 5701 5700 5699 5697 5695
5670 5672 5673 5675 5676 5678 5679 5681 5683 5685 5687 5689 5691 5691 5692 5693 5695 5697 5699 5701 5702 5704 5705 5706 5707 5709 5710 5711 5711 5713 5714 5715 5715 5716 5716 5716 5717 5717 5718 5719 5719 5719 5720 5720 5720 5720 5720 5720 5720 5720 5720 5720 5720 5719 5719 5719 5719 5720 5720 5720 5719 5718 5717 5716 5715 5714 5713 5712 5711 5709 5707 5706 5704 5702 5701 5699 5697 5695 5693 5691 5690 5689 5687 5685 5684
5663 5665 5666 5667 5668 5669 5670 5672 5674 5675 5677 5679 5680 5681 5681 5683 5686 5687 5689 5691 5693 5694 5695 5697 5699 5700 5701 5702 5703 5704 5705 5706 5706 5706 5707 5708 5708 5708 5709 5709 5710 5710 5710 5710 5710 5710 5710 5710 5710 5710 5710 5710 5710 5709 5709 5708 5709 5710 5710 5709 5708 5707 5706 5705 5704 5704 5703 5701 5700 5698 5696 5695 5694 5692 5690 5688 5686 5684 5683 5681 5679 5678 5676 5674 5672